When you browse on this site, cookies collect data to enhance your experience and personalize the content and advertising you see.
Visit our Privacy Policy to learn more. By continuing to use the site, you agree to this use of cookies and data.
  • In Lithuania
  • List of Countries
  • For 7 days
  • Water Temperature
  • Satellite Maps
  • Weather Map
  • Weather Widgets
  • user-avatar
    Login

    Hourly Weather Canberra

    Today, 19 July, Friday

    Time Temperature Precipitation Wind Pressure Humidity
    00:00 +1°C° 0 mm 3 mps 709 mmHg 93%
    01:00 +1°C° 0 mm 3 mps 709 mmHg 92%
    02:00 +1°C° 0 mm 3 mps 709 mmHg 93%
    03:00 +1°C° 0 mm 3 mps 709 mmHg 94%
    04:00 +1°C° 0 mm 3 mps 709 mmHg 97%
    05:00 +1°C° 0 mm 3 mps 709 mmHg 97%
    06:00 +1°C° 0 mm 3 mps 710 mmHg 97%
    07:00 +1°C° 0 mm 3 mps 710 mmHg 97%
    08:00 +3°C° 0 mm 3 mps 710 mmHg 91%
    09:00 +5°C° 0 mm 3 mps 711 mmHg 86%
    10:00 +8°C° 0 mm 3 mps 711 mmHg 78%
    11:00 +9°C° 0 mm 3 mps 711 mmHg 72%
    12:00 +11°C° 0 mm 3 mps 711 mmHg 67%
    13:00 +12°C° 0 mm 3 mps 711 mmHg 61%
    14:00 +12°C° 0 mm 3 mps 711 mmHg 64%
    15:00 +11°C° 0 mm 3 mps 711 mmHg 67%
    16:00 +11°C° 0 mm 3 mps 711 mmHg 70%
    17:00 +9°C° 0 mm 3 mps 712 mmHg 78%
    18:00 +7°C° 0 mm 2 mps 712 mmHg 86%
    19:00 +5°C° 0 mm 1 mps 712 mmHg 95%
    20:00 +5°C° 0 mm 1 mps 712 mmHg 95%
    21:00 +4°C° 0 mm 1 mps 713 mmHg 94%
    22:00 +2°C° 0 mm 0 mps 713 mmHg 94%
    23:00 +3°C° 0 mm 1 mps 713 mmHg 94%

    Tomorrow, 20 July, Saturday

    Time Temperature Precipitation Wind Pressure Humidity
    00:00 +3°C° 0 mm 1 mps 713 mmHg 94%
    01:00 +2°C° 0 mm 1 mps 713 mmHg 94%
    02:00 +2°C° 0 mm 1 mps 712 mmHg 94%
    03:00 +1°C° 0 mm 0 mps 712 mmHg 93%
    04:00 +2°C° 0 mm 0 mps 712 mmHg 93%
    05:00 +1°C° 0 mm 0 mps 712 mmHg 93%
    06:00 +1°C° 0 mm 0 mps 712 mmHg 92%
    07:00 +1°C° 0 mm 0 mps 712 mmHg 92%
    08:00 +4°C° 0 mm 1 mps 712 mmHg 86%
    09:00 +5°C° 0 mm 1 mps 712 mmHg 80%
    10:00 +7°C° 0 mm 1 mps 712 mmHg 75%
    11:00 +8°C° 0 mm 2 mps 711 mmHg 69%
    12:00 +10°C° 0 mm 3 mps 711 mmHg 63%
    13:00 +12°C° 0 mm 3 mps 710 mmHg 57%
    14:00 +11°C° 0 mm 3 mps 710 mmHg 60%
    15:00 +11°C° 0 mm 4 mps 710 mmHg 62%
    16:00 +11°C° 0 mm 4 mps 710 mmHg 65%
    17:00 +9°C° 0 mm 3 mps 710 mmHg 73%
    18:00 +7°C° 0 mm 3 mps 710 mmHg 82%
    19:00 +5°C° 0 mm 2 mps 710 mmHg 90%
    20:00 +4°C° 0 mm 2 mps 710 mmHg 91%
    21:00 +4°C° 0 mm 2 mps 710 mmHg 92%
    22:00 +4°C° 0 mm 2 mps 710 mmHg 94%
    23:00 +3°C° 0 mm 2 mps 709 mmHg 94%

    Day after tomorrow, 21 July, Sunday

    Time Temperature Precipitation Wind Pressure Humidity
    00:00 +3°C° 0 mm 2 mps 709 mmHg 94%
    01:00 +3°C° 0 mm 2 mps 708 mmHg 94%
    02:00 +3°C° 0 mm 2 mps 708 mmHg 94%
    03:00 +3°C° 0 mm 2 mps 708 mmHg 93%
    04:00 +3°C° 0 mm 2 mps 708 mmHg 93%
    05:00 +3°C° 0 mm 2 mps 708 mmHg 94%
    06:00 +3°C° 0 mm 2 mps 708 mmHg 94%
    07:00 +2°C° 0 mm 2 mps 708 mmHg 95%
    08:00 +4°C° 0 mm 3 mps 708 mmHg 85%
    09:00 +6°C° 0 mm 4 mps 708 mmHg 76%
    10:00 +8°C° 0 mm 5 mps 708 mmHg 67%
    11:00 +10°C° 0 mm 6 mps 707 mmHg 62%
    12:00 +11°C° 0 mm 6 mps 707 mmHg 57%
    13:00 +13°C° 0 mm 6 mps 706 mmHg 52%
    14:00 +13°C° 0 mm 6 mps 706 mmHg 55%
    15:00 +11°C° 0 mm 6 mps 706 mmHg 59%
    16:00 +12°C° 0 mm 5 mps 706 mmHg 62%
    17:00 +10°C° 0 mm 4 mps 706 mmHg 71%
    18:00 +8°C° 0 mm 3 mps 706 mmHg 79%
    19:00 +7°C° 0 mm 2 mps 707 mmHg 87%
    20:00 +7°C° 0.2 mm 2 mps 707 mmHg 89%
    21:00 +7°C° 0.2 mm 2 mps 708 mmHg 90%
    22:00 +7°C° 0.2 mm 2 mps 708 mmHg 91%
    23:00 +6°C° 0 mm 2 mps 708 mmHg 91%

    22 July, Monday

    Time Temperature Precipitation Wind Pressure Humidity
    00:00 +5°C° 0 mm 2 mps 708 mmHg 91%
    01:00 +6°C° 0 mm 1 mps 708 mmHg 92%
    02:00 +5°C° 0 mm 1 mps 708 mmHg 92%
    03:00 +5°C° 0 mm 1 mps 708 mmHg 93%
    04:00 +4°C° 0 mm 1 mps 708 mmHg 94%
    05:00 +3°C° 0 mm 0 mps 708 mmHg 94%
    06:00 +2°C° 0 mm 0 mps 708 mmHg 94%
    07:00 +2°C° 0 mm 0 mps 709 mmHg 95%
    08:00 +5°C° 0 mm 1 mps 709 mmHg 88%
    09:00 +7°C° 0 mm 1 mps 709 mmHg 82%
    10:00 +10°C° 0 mm 1 mps 710 mmHg 76%
    11:00 +10°C° 0 mm 2 mps 709 mmHg 68%
    12:00 +11°C° 0 mm 3 mps 709 mmHg 60%
    13:00 +13°C° 0 mm 4 mps 708 mmHg 53%
    14:00 +12°C° 0 mm 4 mps 708 mmHg 54%
    15:00 +12°C° 0 mm 4 mps 708 mmHg 56%
    16:00 +11°C° 0 mm 4 mps 708 mmHg 58%
    17:00 +8°C° 0 mm 4 mps 708 mmHg 67%
    18:00 +7°C° 0 mm 3 mps 708 mmHg 75%
    19:00 +5°C° 0 mm 2 mps 708 mmHg 84%
    20:00 +5°C° 0 mm 2 mps 708 mmHg 86%
    21:00 +4°C° 0 mm 2 mps 708 mmHg 87%
    22:00 +4°C° 0 mm 2 mps 709 mmHg 89%
    23:00 +4°C° 0 mm 2 mps 708 mmHg 90%

    23 July, Tuesday

    Time Temperature Precipitation Wind Pressure Humidity
    00:00 +3°C° 0 mm 2 mps 708 mmHg 90%
    01:00 +3°C° 0 mm 2 mps 708 mmHg 91%
    02:00 +3°C° 0 mm 2 mps 708 mmHg 90%
    03:00 +3°C° 0 mm 2 mps 708 mmHg 90%
    04:00 +3°C° 0 mm 2 mps 708 mmHg 90%
    05:00 +3°C° 0 mm 2 mps 708 mmHg 90%
    06:00 +2°C° 0 mm 2 mps 708 mmHg 90%
    07:00 +2°C° 0 mm 2 mps 708 mmHg 90%
    08:00 +4°C° 0 mm 3 mps 709 mmHg 79%
    09:00 +6°C° 0 mm 4 mps 709 mmHg 69%
    10:00 +8°C° 0 mm 5 mps 709 mmHg 59%
    11:00 +10°C° 0 mm 6 mps 709 mmHg 56%
    12:00 +11°C° 0 mm 6 mps 708 mmHg 52%
    13:00 +12°C° 0 mm 7 mps 708 mmHg 49%
    14:00 +11°C° 0 mm 7 mps 708 mmHg 52%
    15:00 +11°C° 0 mm 7 mps 707 mmHg 55%
    16:00 +10°C° 0 mm 7 mps 707 mmHg 59%
    17:00 +9°C° 0 mm 6 mps 707 mmHg 62%
    18:00 +8°C° 0 mm 6 mps 708 mmHg 66%
    19:00 +7°C° 0 mm 5 mps 708 mmHg 70%
    20:00 +7°C° 0 mm 5 mps 708 mmHg 72%
    21:00 +7°C° 0 mm 5 mps 708 mmHg 74%
    22:00 +6°C° 0 mm 5 mps 708 mmHg 76%
    23:00 +6°C° 0.1 mm 5 mps 708 mmHg 81%

    24 July, Wednesday

    Time Temperature Precipitation Wind Pressure Humidity
    00:00 +6°C° 0.1 mm 5 mps 708 mmHg 86%
    01:00 +6°C° 0.1 mm 5 mps 708 mmHg 91%
    02:00 +5°C° 0.1 mm 5 mps 707 mmHg 90%
    03:00 +5°C° 0.1 mm 5 mps 707 mmHg 89%
    04:00 +3°C° 0.1 mm 5 mps 707 mmHg 87%
    05:00 +3°C° 0.1 mm 5 mps 708 mmHg 88%
    06:00 +3°C° 0.1 mm 5 mps 708 mmHg 89%
    07:00 +3°C° 0.1 mm 5 mps 709 mmHg 90%
    08:00 +6°C° 0 mm 4 mps 709 mmHg 83%
    09:00 +7°C° 0 mm 4 mps 710 mmHg 76%
    10:00 +9°C° 0 mm 3 mps 711 mmHg 69%
    11:00 +10°C° 0 mm 3 mps 711 mmHg 63%
    12:00 +11°C° 0 mm 3 mps 711 mmHg 56%
    13:00 +13°C° 0 mm 2 mps 711 mmHg 50%
    14:00 +11°C° 0 mm 3 mps 711 mmHg 54%
    15:00 +11°C° 0 mm 3 mps 711 mmHg 58%
    16:00 +10°C° 0 mm 3 mps 711 mmHg 63%
    17:00 +8°C° 0 mm 2 mps 712 mmHg 73%
    18:00 +6°C° 0 mm 2 mps 712 mmHg 84%
    19:00 +4°C° 0 mm 1 mps 713 mmHg 94%
    20:00 +4°C° 0 mm 1 mps 713 mmHg 95%
    21:00 +3°C° 0 mm 1 mps 713 mmHg 95%
    22:00 +2°C° 0 mm 0 mps 714 mmHg 96%
    23:00 +1°C° 0 mm 0 mps 714 mmHg 96%
    Show more